Starlink 30771

operational
NORAD ID: 58169 Int'l Des: 2023-166 Owner: SPXS Country: US Constellation: starlink
LEOCIRCULAR

Starlink 30771について

説明を読み込み中...

リアルタイム位置

3D地球を読み込み中...

次回通過

高度履歴

Altitude vs Time

uPlot chart will show altitude changes over time

軌道要素

1 58169U 23166V 26034.35351947 .00000361 00000-0 24319-4 0 9992
2 58169 53.1626 19.0056 0001272 104.3457 255.7685 15.30192724127924
Epoch: Feb 3, 2026 • Age: 11 hours

現在のステータス

高度 476.6 km
速度 7.63 km/s
衛星直下点 -1.24°S, 49.79°W
打ち上げ日 Oct 29, 2023
運用期間 2.2 years
タイプ internet

技術仕様

分類 Payload
質量 730.00 kg
乾燥質量 700.00 kg
総質量 730.00 kg
長さ 0.30 m
直径 4.10 m
スパン 29.00 m
形状 Box + pan
製造者 SPXS
バスタイプ Starlink V2M
フェーズステータス In Orbit
所有者/国 SPXS/US

大規模コンステレーション

Loading constellations...